Regional Weather Roundup
Issued by NWS Sterling, VA

Home | Current Version | Previous Version | Graphics & Text | Print | Product List | Glossary On
Versions: 1 2 3 4 5 6 7 8 9 10 11 12 13 14 15 16 17 18 19 20 21 22 23 24 25 26 27 28 29 30 31 32 33 34 35 36 37 38 39 40 41 42 43 44 45 46 47
000
ASUS41 KLWX 282210
RWRLWX

REGIONAL WEATHER ROUNDUP
NATIONAL WEATHER SERVICE BALTIMORE MD/WASHINGTON DC
600 PM EDT TUE JUL 28 2015

Note: "FAIR" indicates few or no clouds below 12,000 feet
with no significant weather and/or obstructions to visibility.
 TC=TEMPERATURE CELSIUS

 * =Non NWS site. Station does not report precipitation (e.g. rain,
    snow, etc.), thunder, or fog.

DCZ001-MDZ009-015-VAZ040>042-051-053>054-282300-
WASHINGTON METRO

CITY           SKY/WX    TMP DP  RH WIND       PRES   REMARKS
WASHINGTON NAT PTSUNNY   90  74  59 SE10      29.94F HX  99
DULLES         MOSUNNY   87  70  56 CALM      29.94F HX  92
ANDREWS AFB    MOSUNNY   86  74  66 E12       29.95F HX  94
FT BELVOIR     SUNNY     89  74  63 SE12      29.94F HX  98
QUANTICO       CLOUDY    82  74  76 S15       29.97R
COLLEGE PARK*  MOSUNNY   86  72  62 SE5       29.95S HX  92
LEESBURG*      PTSUNNY   91  72  52 E7        29.95F HX  98
GAITHERSBURG*  SUNNY     88  70  55 E6        29.99F HX  92

$$

MDZ006>007-011-014-282300-
BALTIMORE METRO

CITY           SKY/WX    TMP DP  RH WIND       PRES   REMARKS
BWI AIRPORT    MOSUNNY   89  65  44 E6        29.94F HX  91
MD SCIENCE CTR   N/A     89  66  46 MISG      29.95F HX  91
MARTIN STATE   MOSUNNY   90  70  51 E5        29.96F HX  95
ANNAPOLIS      SUNNY     85  72  65 SE8       29.95F HX  91
FORT MEADE*    SUNNY     86  70  58 SE8       29.97F HX  90

$$

MDZ012-015-019>023-282300-
MARYLAND EASTERN SHORE

CITY           SKY/WX    TMP DP  RH WIND       PRES   REMARKS
OCEAN CITY     PTSUNNY   81  72  74 SW9       29.98F
SALISBURY      MOSUNNY   80  74  81 SE8       29.98R
BAY BRIDGE AP*   N/A     86  70  58 W3        29.95F HX  90
CAMBRIDGE*     SUNNY     86  70  58 S6        29.96F HX  90
EASTON*        MOSUNNY   90  75  62 W6        29.99  HX 100

$$

MDZ017>025-282300-
SOUTHERN MARYLAND

CITY           SKY/WX    TMP DP  RH WIND       PRES   REMARKS
PATUXENT RIVER PTSUNNY   83  74  74 S5        29.95F
ST INIGOES     MOSUNNY   83  74  74 SW9       29.96F
LEONARDTOWN*   MOSUNNY   81  72  74 SW6       29.98F

$$

MDZ003>005-282300-
NORTH CENTRAL MARYLAND

CITY           SKY/WX    TMP DP  RH WIND       PRES   REMARKS
FREDERICK*     SUNNY     90  72  55 VRB5      29.97F HX  96
HAGERSTOWN APT MOSUNNY   89  67  47 E6        29.97F HX  92
WESTMINSTER*   SUNNY     90  72  55 E5        29.98F HX  96

$$

MDZ501>502-282300-
WESTERN MARYLAND

CITY           SKY/WX    TMP DP  RH WIND       PRES   REMARKS
OAKLAND*       MOSUNNY   77  77 100 SE5       30.10S
CUMBERLAND*    MOSUNNY   88  68  51 E3        30.00S HX  91

$$

VAZ025>031-282300-
SHENANDOAH VALLEY

CITY           SKY/WX    TMP DP  RH WIND       PRES   REMARKS
WINCHESTER*    PTSUNNY   88  70  55 E3        29.96F HX  92
FRONT ROYAL*   FAIR      86  73  66 SE5       29.95F HX  93
LURAY*         FAIR      82  73  74 CALM      29.98S
NEW MARKET*    FAIR      79  72  79 NW5       29.96F
STAUNTON*      PTSUNNY   85  72  63 E8        30.00F HX  91
WAYNESBORO*    MOCLDY    81  71  71 SE3       30.00F

$$

WVZ021-048>050-054>055-282300-
EASTERN WEST VIRGINIA PANHANDLE

CITY           SKY/WX    TMP DP  RH WIND       PRES   REMARKS
MARTINSBURG    SUNNY     89  69  51 E7        29.96F HX  93
PETERSBURG*    PTSUNNY  N/A N/A N/A E3        30.02S

$$

VAZ036>039-050-282300-
CENTRAL FOOTHILLS

CITY           SKY/WX    TMP DP  RH WIND       PRES   REMARKS
CHARLOTTESVILL PTSUNNY   83  75  77 NE5       29.97R HX  90
CULPEPER*      PTSUNNY   86  74  66 CALM      29.95F HX  94
ORANGE*        TSTM      77  73  88 SE9G18    30.01R VSB 1/2
GORDONSVILLE*  MOCLDY    77  73  88 S9        29.98R
WARRENTON*     FAIR      85  78  79 E5        29.95S HX  96

$$

VAZ055>057-282300-
NORTH AND CENTRAL PIEDMONT

CITY           SKY/WX    TMP DP  RH WIND       PRES   REMARKS
FREDERICKSBRG* HVY RAIN  78  78 100 SW10      29.99R
STAFFORD*      CLOUDY    76  72  86 SW7       30.03R

$$

NCZ024-NYZ072-PAZ021-071-VAZ022-071-282300-
OTHER REGIONAL OBSERVATIONS

CITY           SKY/WX    TMP DP  RH WIND       PRES   REMARKS
NEW YORK CITY  MOSUNNY   88  66  48 CALM      29.97S HX  90
PHILADELPHIA   MOSUNNY   91  68  46 SW9       29.95S HX  95
PITTSBURGH     MOSUNNY   87  63  44 NE6       29.99F
ROANOKE        PTSUNNY   83  70  64 NW3       30.00R
RICHMOND       PTSUNNY   83  73  72 S10       29.97F
RALEIGH        LGT RAIN  86  71  60 SE3       29.97F HX  91

$$

ANZ530>537-282300-
MARINE OBSERVATIONS

STATION/POSITION TIME  TEMP    WIND        PRES
                       AIR SEA DIR/SP/G
                 (UTC) (F)     (DEG/KT/KT) (MB)
THOMAS PT LIGHT  NOT AVBL
BALT KEY BRIDGE  2100   85     120/  6/  7 1014.4F
COVE POINT       2100   82     190/ 12/ 14 1015.6S
LEWISETTA        2100   82 86  250/ 13/ 15 1014.8R
SOLOMONS ISLAND  2100      82                N/A

$$




USA.gov is the U.S. government's official web portal to all federal, state and local government web resources and services.